Regional Weather Roundup
Issued by NWS Little Rock, AR

Home | Current Version | Previous Version | Text Only | Print | Product List | Glossary Off
Versions: 1 2 3 4 5 6 7 8 9 10 11 12 13 14 15 16 17 18 19 20 21 22 23 24 25 26 27 28 29 30 31 32 33 34 35 36 37 38 39 40 41 42 43 44 45 46 47 48 49 50

000
ASUS44 KLZK 291005
RWRLZK

WEATHER ROUNDUP FOR ARKANSAS
NATIONAL WEATHER SERVICE LITTLE ROCK AR
500 AM CDT TUE JUL 29 2014

NOTE: "FAIR" INDICATES FEW OR NO CLOUDS BELOW 12,000 FEET WITH NO
SIGNIFICANT WEATHER AND/OR OBSTRUCTIONS TO VISIBILITY.

ARZ001-003-010-029-291100-
NORTHWEST ARKANSAS

CITY           SKY/WX    TMP DP  RH WIND       PRES   REMARKS
FAYETTEVILLE   CLEAR     57  57 100 CALM      30.16S
FORT SMITH     CLEAR     66  62  87 CALM      30.12R
HARRISON       CLEAR     60  58  92 CALM      30.17R
BENTONVILLE    CLEAR     63  55  77 CALM      30.17R
ROGERS         CLEAR     62  57  83 E3        30.17S
SILOAM SPGS    CLEAR     61  52  72 CALM      30.16S
HIGHFILL       CLEAR     60  57  89 N3        30.16S
$$

ARZ004-005-016-291100-
NORTH CENTRAL ARKANSAS

CITY           SKY/WX    TMP DP  RH WIND       PRES   REMARKS
BATESVILLE     CLEAR     66  61  82 CALM      30.12S
FLIPPIN        CLEAR     64  55  72 CALM      30.15S
MTN HOME       CLEAR     62  56  80 VRB3      30.14S
$$

ARZ040-041-291100-
WEST CENTRAL ARKANSAS

CITY           SKY/WX    TMP DP  RH WIND       PRES   REMARKS
MENA           CLEAR     63  61  94 CALM      30.14R
MOUNT IDA      CLEAR     62  61  96 CALM      30.10R
$$

ARZ009-017-025-026-028-291100-
NORTHEAST ARKANSAS

CITY           SKY/WX    TMP DP  RH WIND       PRES   REMARKS
CORNING        FAIR      63  59  88 N6        30.12R
JONESBORO      CLEAR     65  58  78 N3        30.10S
NEWPORT        CLEAR     66  63  90 N5        30.12R
WALNUT RIDGE   CLEAR     63  57  82 N7        30.11R
BLYTHEVILLE    CLEAR     62  60  93 N7        30.10R
$$

ARZ022-023-033-042-044-291100-
CENTRAL ARKANSAS

CITY           SKY/WX    TMP DP  RH WIND       PRES   REMARKS
LITTLE ROCK    PTCLDY    70  62  76 N6        30.10R
N LITTLE ROCK    N/A     68  64  87 NE8       30.10R
JACKSONVILLE   PTCLDY    69  63  81 NE7       30.10R
SEARCY         CLEAR     68  62  80 N8        30.11R
HOT SPRINGS    CLEAR     68  63  84 CALM      30.11R
RUSSELLVILLE   CLEAR     64  61  90 CALM      30.12R
CLINTON        MOCLDY    64  63  94 CALM      30.14R
$$

ARZ036-291100-
EAST ARKANSAS

CITY           SKY/WX    TMP DP  RH WIND       PRES   REMARKS
WEST MEMPHIS   PTCLDY    68  65  90 N6        30.07R
$$

ARZ050-053-066-070-073-291100-
SOUTHWEST ARKANSAS

CITY           SKY/WX    TMP DP  RH WIND       PRES   REMARKS
ARKADELPHIA    FAIR      67  67 100 CALM      30.09R
CAMDEN         FOG       64  63  94 CALM      30.07S VSB 1/2
TEXARKANA      CLEAR     68  64  87 CALM      30.09R
EL DORADO      CLEAR     66  66 100 CALM      30.07S
DE QUEEN       CLEAR     65  64  97 CALM      30.08S
$$

ARZ056-057-069-291100-
SOUTHEAST ARKANSAS

CITY           SKY/WX    TMP DP  RH WIND       PRES   REMARKS
PINE BLUFF     CLEAR     69  64  84 N8        30.08R
STUTTGART      CLEAR     70  63  78 N10       30.08R
MONTICELLO     PTCLDY    67  65  93 NW3       30.06R

$$





USA.gov is the U.S. government's official web portal to all federal, state and local government web resources and services.